[[{"header":{"parameterUnit":"m.s-1","parameterCategory":1,"la1":30.2991,"la2":30.254,"lo1":-89.0895,"lo2":-89.0444,"dy":0.0017,"dx":0.0017,"nx":28,"ny":28,"refTime":"2024-09-29T21:00:00:Z","depth":0,"parameterNumber":2,"parameterNumberName":"U-component_of_WINDS"},"data":[0,0,0,0,0,0,0,0,0,0,0,0,0,0,0,0,0,0,0,0,0,0,0,0,0,0,0,0,0,0,0,0,0,0,0,0,0,0,0,0,0,0,0,0,0,0,0,0,0,0,0,0,0,0,0,0,0,0,1.4942,1.4943,0,1.5023,1.5024,1.5025,1.5039,1.5038,1.5038,1.5037,1.5117,1.512,1.5123,0,0,0,0,0,0,0,0,0,0,0,0,0,1.4796,1.4799,1.4942,1.4943,1.4944,1.5023,1.5024,1.5025,1.5039,1.5038,1.5037,1.5037,1.5116,1.5119,1.5123,0,0,0,0,0,0,0,0,0,0,0,0,0,1.4866,1.48,1.4942,1.496,1.4963,1.5023,1.5024,1.5026,1.5039,1.5038,1.5037,1.5036,1.5115,1.5119,1.5123,1.5169,0,0,1.5136,1.5138,0,0,0,0,0,0,0,0,1.4862,1.4872,1.4957,1.4959,1.4962,1.502,1.5002,1.5074,1.504,1.501,1.5037,1.5036,1.5085,1.5092,1.5109,1.5173,1.5176,1.5136,1.5139,1.5141,1.5142,0,0,0,0,0,0,0,1.4858,1.4868,1.4974,1.4958,1.4961,1.4964,1.4973,1.5016,1.5052,1.5013,1.5014,1.5024,1.5087,1.5105,1.5111,1.5177,1.5136,1.514,1.5142,1.5144,1.5283,1.5284,0,0,0,0,0,0,1.485,1.4864,1.4971,1.4976,1.4909,1.4967,1.4977,1.5002,1.5052,1.5059,1.5024,1.5024,1.5099,1.5106,1.5114,1.5171,1.5141,1.5144,1.5147,1.5281,1.5283,1.5284,0,0,0,0,0,0,1.4847,1.4859,1.4968,1.4921,1.4935,1.4971,1.4999,1.5005,1.5023,1.5061,1.5067,1.5037,1.5098,1.5108,1.5156,1.5174,1.5146,1.515,1.528,1.5282,1.5284,1.5284,0,0,0,0,0,0,1.4842,1.4858,1.4876,1.4921,1.4937,1.5009,1.5,1.5007,1.5031,1.5031,1.5074,1.508,1.5098,1.5149,1.516,1.5179,1.5153,1.5279,1.5281,1.5283,1.5283,1.5286,1.5289,0,0,0,0,0,1.4837,1.4873,1.4877,1.489,1.4961,1.501,1.5019,1.504,1.5032,1.505,1.5075,1.5079,1.517,1.5154,1.5166,1.5186,1.5277,1.528,1.5283,1.5281,1.5285,1.5288,0,0,0,0,0,0,1.4827,1.4879,1.4884,1.4936,1.4968,1.5012,1.5036,1.5043,1.5078,1.5076,1.51,1.511,1.5155,1.5176,1.5157,1.5234,1.5223,1.5228,1.5218,1.5222,1.5225,1.5218,1.5157,0,0,0,0,0,1.4832,1.4868,1.491,1.4951,1.4968,1.4999,1.5021,1.5034,1.5069,1.5082,1.511,1.5143,1.5179,1.5202,1.5237,1.5286,1.5296,1.5307,1.5309,1.5312,1.5315,1.5342,1.5347,1.5293,1.5293,1.5293,0,0,1.484,1.4872,1.4894,1.495,1.4977,1.5013,1.501,1.5049,1.5075,1.5088,1.5134,1.5156,1.5194,1.5242,1.5265,1.526,1.5333,1.5315,1.5316,1.5319,1.5346,1.5351,1.5355,1.5295,1.5295,1.5294,0,0,1.4873,1.4902,1.4939,1.4967,1.5008,1.5029,1.5038,1.5081,1.5096,1.5143,1.5154,1.5185,1.5247,1.5274,1.5295,1.534,1.5345,1.5351,1.5365,1.5391,1.5395,1.5399,1.5414,1.542,1.5355,1.5355,1.5355,0,1.4878,1.4934,1.4957,1.4995,1.502,1.5034,1.5072,1.5097,1.5147,1.5163,1.5158,1.5236,1.5263,1.5317,1.5328,1.5346,1.5356,1.5345,1.5393,1.5397,1.5401,1.5416,1.5421,1.5355,1.5355,1.5355,1.5355,0,1.4937,1.4975,1.5,1.505,1.5077,1.5115,1.5143,1.5168,1.5179,1.52,1.5248,1.5281,1.5323,1.5337,1.5348,1.5393,1.5389,1.5389,1.5378,1.5406,1.542,1.5426,1.5355,1.5355,1.5355,1.5355,0,0,1.4965,1.5028,1.5036,1.5059,1.5107,1.5136,1.5174,1.5217,1.5237,1.5272,1.5303,1.5356,1.5356,1.538,1.5395,1.5418,1.545,1.5414,1.5416,1.5419,1.5501,1.55,1.5506,1.5455,1.5456,1.5457,1.5498,0,1.5003,1.5072,1.5095,1.5152,1.5187,1.5202,1.5236,1.5268,1.5289,1.5321,1.5344,1.5381,1.5378,1.5393,1.5417,1.5441,1.5467,1.5439,1.5483,1.5484,1.5472,1.5514,1.5513,1.555,1.5503,1.5504,1.5505,0,1.5056,1.5092,1.5153,1.5197,1.5212,1.5242,1.5283,1.5314,1.5351,1.5364,1.5392,1.5405,1.5445,1.5434,1.5488,1.5469,1.5488,1.5503,1.5505,1.5509,1.5495,1.5517,1.5562,1.5567,1.5514,1.5513,1.5513,0,1.5069,1.5133,1.5178,1.5197,1.5249,1.5269,1.5292,1.5328,1.5352,1.5387,1.5403,1.5442,1.5463,1.5493,1.5516,1.5506,1.5568,1.5559,1.558,1.5579,1.559,1.5589,1.5638,1.5606,1.5606,1.5605,1.5605,0,1.5108,1.5144,1.5185,1.5212,1.5253,1.5279,1.5319,1.5342,1.5374,1.5405,1.5421,1.545,1.5479,1.5512,1.553,1.5572,1.5582,1.5593,1.5597,1.5591,1.5589,1.5603,1.56,1.5607,1.5607,1.5606,1.5606,0,1.5128,1.5157,1.5207,1.5252,1.5265,1.5293,1.5331,1.5358,1.5381,1.542,1.5431,1.5465,1.5505,1.5531,1.5581,1.5594,1.5639,1.5643,1.5626,1.5628,1.5647,1.5644,1.5705,1.5713,1.5676,1.5677,1.5677,0,1.515,1.5179,1.5228,1.5251,1.5274,1.531,1.5335,1.5362,1.5387,1.5432,1.5453,1.5494,1.5528,1.559,1.5619,1.5657,1.5662,1.568,1.5667,1.566,1.5661,1.5658,1.5661,1.5682,1.5682,1.5682,1.5682,0,1.5187,1.52,1.5236,1.5277,1.5307,1.534,1.5374,1.5391,1.5424,1.5452,1.5493,1.5519,1.5571,1.5611,1.5652,1.5674,1.5683,1.5687,1.5693,1.5686,1.5675,1.568,1.5631,1.5685,1.5684,1.5684,1.5684,1.5684,1.5208,1.5234,1.5273,1.5312,1.5341,1.5372,1.54,1.5426,1.5461,1.5506,1.552,1.5562,1.5598,1.5655,1.5678,1.5711,1.5709,1.5719,1.5721,1.5723,1.5722,1.5671,1.5719,1.5719,1.5719,1.5719,1.5719,0,1.5244,1.527,1.5307,1.5354,1.5385,1.5393,1.543,1.5455,1.5493,1.5527,1.556,1.5607,1.5646,1.5679,1.5719,1.5739,1.5744,1.5749,1.5747,1.5752,1.5722,1.5712,1.5744,1.5744,1.5744,1.5744,1.5744,1.5744,1.5266,1.5311,1.5328,1.5387,1.5413,1.5455,1.5476,1.5505,1.5532,1.5584,1.5617,1.5639,1.5672,1.5715,1.575,1.5759,1.5772,1.5776,1.5785,1.5757,1.5754,1.5751,1.5741,1.5779,1.5779,1.5811,1.5812,1.5812]},{"header":{"parameterUnit":"m.s-1","parameterCategory":1,"la1":30.2991,"la2":30.254,"lo1":-89.0895,"lo2":-89.0444,"dy":0.0017,"dx":0.0017,"nx":28,"ny":28,"refTime":"2024-09-29T21:00:00:Z","depth":0,"parameterNumber":3,"parameterNumberName":"V-component_of_WINDS"},"data":[0,0,0,0,0,0,0,0,0,0,0,0,0,0,0,0,0,0,0,0,0,0,0,0,0,0,0,0,0,0,0,0,0,0,0,0,0,0,0,0,0,0,0,0,0,0,0,0,0,0,0,0,0,0,0,0,0,0,2.0708,2.0708,0,2.0707,2.0707,2.0707,2.0658,2.0657,2.0656,2.0655,2.0654,2.0655,2.0656,0,0,0,0,0,0,0,0,0,0,0,0,0,2.0666,2.0667,2.0708,2.0708,2.0708,2.0707,2.0707,2.0707,2.0658,2.0657,2.0655,2.0654,2.0653,2.0654,2.0656,0,0,0,0,0,0,0,0,0,0,0,0,0,2.0677,2.0667,2.0708,2.0683,2.0681,2.0707,2.0707,2.0707,2.0659,2.0657,2.0655,2.0653,2.0653,2.0654,2.0656,2.0705,0,0,2.0661,2.0662,0,0,0,0,0,0,0,0,2.0676,2.0678,2.0687,2.0685,2.0683,2.0681,2.0692,2.0706,2.0659,2.0667,2.0654,2.0652,2.0664,2.0665,2.0669,2.0705,2.0705,2.0662,2.0663,2.0663,2.0664,0,0,0,0,0,0,0,2.0675,2.0678,2.0707,2.0687,2.0685,2.0672,2.0672,2.0694,2.0676,2.0666,2.0663,2.0664,2.0663,2.0667,2.0668,2.0705,2.0661,2.0663,2.0664,2.0665,2.078,2.0782,0,0,0,0,0,0,2.0678,2.0678,2.0707,2.0707,2.0675,2.0675,2.0674,2.0683,2.0676,2.0673,2.0665,2.0661,2.0665,2.0666,2.0668,2.0724,2.0663,2.0665,2.0666,2.0778,2.0781,2.0783,0,0,0,0,0,0,2.0677,2.0681,2.0708,2.0692,2.0694,2.0677,2.0688,2.0684,2.0689,2.0675,2.0672,2.0673,2.0664,2.0666,2.0696,2.0724,2.0666,2.0667,2.0776,2.0779,2.0782,2.0837,0,0,0,0,0,0,2.0676,2.0681,2.07,2.0692,2.0695,2.0736,2.069,2.0686,2.0692,2.0687,2.0682,2.0679,2.0662,2.0694,2.0698,2.0725,2.0669,2.0773,2.0777,2.0781,2.0833,2.0842,2.085,0,0,0,0,0,2.0675,2.0716,2.0701,2.0705,2.0718,2.0738,2.0739,2.0719,2.0695,2.0713,2.0704,2.0679,2.072,2.0697,2.0701,2.073,2.0771,2.0776,2.078,2.0829,2.084,2.0849,0,0,0,0,0,0,2.0727,2.0715,2.0698,2.0738,2.0739,2.0729,2.0752,2.0731,2.074,2.0735,2.0709,2.0709,2.0743,2.0739,2.0714,2.0776,2.0741,2.0747,2.0777,2.0787,2.0795,2.0795,2.067,0,0,0,0,0,2.0744,2.0761,2.0748,2.0784,2.0786,2.0769,2.0777,2.0761,2.0761,2.0762,2.0755,2.0756,2.0769,2.0778,2.0789,2.0832,2.083,2.0854,2.0862,2.0869,2.0874,2.0896,2.0906,2.0798,2.0798,2.0797,0,0,2.0777,2.0772,2.0784,2.0795,2.0794,2.0812,2.077,2.0791,2.0803,2.0765,2.0793,2.0788,2.0787,2.0824,2.084,2.0822,2.0903,2.0875,2.088,2.0881,2.0901,2.0912,2.0921,2.0801,2.08,2.08,0,0,2.0847,2.0845,2.0875,2.0875,2.0874,2.0862,2.0869,2.0863,2.0858,2.0885,2.0857,2.0871,2.0894,2.0895,2.0898,2.0968,2.0945,2.0972,2.1015,2.1037,2.1045,2.1053,2.1077,2.1086,2.0977,2.0977,2.0977,0,2.0889,2.0915,2.0893,2.0915,2.092,2.0886,2.0915,2.0916,2.0919,2.0923,2.0903,2.0931,2.0928,2.0964,2.0981,2.0985,2.0992,2.0972,2.1046,2.1053,2.106,2.1083,2.1092,2.0981,2.098,2.098,2.098,0,2.0965,2.0984,2.1007,2.1011,2.1019,2.1045,2.1026,2.1036,2.102,2.1011,2.1039,2.1034,2.1044,2.1051,2.1036,2.1085,2.1074,2.105,2.1015,2.1074,2.1095,2.1103,2.0985,2.0984,2.0983,2.0982,0,0,2.1069,2.1059,2.1068,2.1069,2.1065,2.1079,2.1103,2.1112,2.1121,2.1124,2.1143,2.1163,2.1141,2.1145,2.1129,2.1148,2.1203,2.1122,2.1122,2.1137,2.1256,2.1273,2.1283,2.1188,2.1189,2.119,2.1256,0,2.1136,2.1176,2.1157,2.1199,2.1215,2.1183,2.1203,2.1203,2.1195,2.1207,2.1197,2.1212,2.1182,2.1184,2.1202,2.1192,2.1226,2.1187,2.1205,2.1206,2.1205,2.1294,2.1313,2.1375,2.1264,2.1265,2.1266,0,2.122,2.1226,2.127,2.1262,2.1268,2.1287,2.1294,2.1306,2.1305,2.1297,2.1301,2.1281,2.1303,2.1268,2.1299,2.1273,2.1279,2.1275,2.1277,2.1278,2.1239,2.1297,2.1394,2.1403,2.1279,2.1278,2.1277,0,2.1289,2.1309,2.1337,2.1339,2.1331,2.1345,2.1343,2.134,2.1346,2.1352,2.1355,2.1364,2.1368,2.1375,2.1357,2.1333,2.1389,2.1353,2.1383,2.1384,2.1397,2.1396,2.1495,2.1401,2.1401,2.1401,2.1401,0,2.1366,2.1394,2.1369,2.1386,2.1417,2.1394,2.1424,2.1418,2.1416,2.1431,2.1404,2.1419,2.1395,2.1407,2.1393,2.142,2.1423,2.1417,2.1413,2.1419,2.142,2.1422,2.1418,2.1403,2.1403,2.1402,2.1402,0,2.1449,2.1433,2.1462,2.1452,2.145,2.1473,2.1464,2.148,2.1469,2.149,2.1493,2.1476,2.149,2.1473,2.1485,2.1475,2.1512,2.1502,2.1512,2.1509,2.154,2.1537,2.1644,2.1657,2.1555,2.1556,2.1557,0,2.1499,2.152,2.1512,2.152,2.1519,2.1533,2.1539,2.1518,2.1525,2.1525,2.1541,2.1552,2.1559,2.1582,2.1571,2.158,2.157,2.1606,2.1571,2.1576,2.1569,2.1568,2.157,2.1614,2.1615,2.1616,2.1617,0,2.1589,2.158,2.159,2.1597,2.1605,2.161,2.1612,2.1621,2.1598,2.1608,2.1621,2.1627,2.1639,2.165,2.1656,2.1653,2.1631,2.1628,2.1635,2.1642,2.1647,2.1644,2.1532,2.1626,2.1625,2.1624,2.1624,2.1623,2.1657,2.1673,2.167,2.1682,2.1681,2.1684,2.1698,2.1689,2.17,2.1708,2.1694,2.1711,2.1708,2.1714,2.1713,2.1726,2.171,2.1721,2.1723,2.1726,2.1731,2.1645,2.1727,2.1727,2.1726,2.1726,2.1726,0,2.1745,2.1741,2.1752,2.1756,2.1765,2.1744,2.1745,2.1754,2.1769,2.1769,2.1777,2.1792,2.1802,2.1792,2.1801,2.1813,2.1803,2.1816,2.1814,2.1814,2.1745,2.1737,2.1823,2.1823,2.1823,2.1823,2.1823,2.1823,2.1791,2.1818,2.1808,2.1834,2.183,2.1846,2.1849,2.1851,2.1851,2.1868,2.1877,2.187,2.1866,2.1873,2.1882,2.1879,2.1883,2.1899,2.1893,2.1828,2.1819,2.181,2.1802,2.1901,2.1901,2.196,2.1961,2.1961]}]]